TimeEST,TemperatureF,Dew PointF,Humidity,Sea Level PressureIn,VisibilityMPH,Wind Direction,Wind SpeedMPH,Gust SpeedMPH,PrecipitationIn,Events,Conditions,WindDirDegrees,DateUTC
12:20 AM,69.8,66.2,88,30.24,10.0,ENE,8.1,-,N/A,,Overcast,60,2013-01-09 05:20:00
12:53 AM,69.1,68.0,96,30.24,3.0,ENE,9.2,-,N/A,,Overcast,60,2013-01-09 05:53:00
1:06 AM,69.8,68.0,94,30.23,2.5,ENE,9.2,-,N/A,,Overcast,60,2013-01-09 06:06:00
1:13 AM,69.8,68.0,94,30.24,3.0,ENE,6.9,-,N/A,,Overcast,60,2013-01-09 06:13:00
1:53 AM,69.1,68.0,96,30.23,4.0,ENE,5.8,-,N/A,,Overcast,60,2013-01-09 06:53:00
2:31 AM,69.8,68.0,94,30.23,2.5,ENE,5.8,-,N/A,,Overcast,60,2013-01-09 07:31:00
2:53 AM,69.1,68.0,96,30.23,3.0,ENE,4.6,-,N/A,,Overcast,60,2013-01-09 07:53:00
3:19 AM,68.0,68.0,100,30.23,1.8,ENE,6.9,-,N/A,,Overcast,70,2013-01-09 08:19:00
3:30 AM,68.0,66.2,94,30.23,0.5,ENE,5.8,-,N/A,Fog,Fog,60,2013-01-09 08:30:00
3:53 AM,68.0,66.9,96,30.23,0.5,ENE,5.8,-,N/A,Fog,Fog,60,2013-01-09 08:53:00
4:05 AM,68.0,66.2,94,30.23,1.5,NE,5.8,-,N/A,,Overcast,50,2013-01-09 09:05:00
4:10 AM,68.0,66.2,94,30.23,2.0,NE,4.6,-,N/A,,Overcast,50,2013-01-09 09:10:00
4:19 AM,68.0,66.2,94,30.23,4.0,ENE,4.6,-,N/A,,Overcast,70,2013-01-09 09:19:00
4:33 AM,68.0,66.2,94,30.23,5.0,East,3.5,-,N/A,,Overcast,80,2013-01-09 09:33:00
4:51 AM,68.0,68.0,100,30.22,7.0,East,4.6,-,N/A,,Overcast,80,2013-01-09 09:51:00
4:53 AM,68.0,68.0,100,30.22,7.0,East,4.6,-,N/A,,Overcast,90,2013-01-09 09:53:00
5:37 AM,68.0,66.2,94,30.24,1.8,ENE,3.5,-,N/A,,Overcast,60,2013-01-09 10:37:00
5:44 AM,68.0,66.2,94,30.24,1.0,ENE,3.5,-,N/A,,Overcast,60,2013-01-09 10:44:00
5:53 AM,68.0,66.9,96,30.24,1.2,ENE,3.5,-,N/A,,Overcast,60,2013-01-09 10:53:00
6:53 AM,68.0,68.0,100,30.25,1.0,ENE,5.8,-,N/A,,Mist,60,2013-01-09 11:53:00
7:20 AM,68.0,68.0,100,30.26,3.0,East,3.5,-,N/A,,Overcast,80,2013-01-09 12:20:00
7:53 AM,68.0,68.0,100,30.27,5.0,Calm,Calm,-,N/A,,Overcast,0,2013-01-09 12:53:00
8:20 AM,69.8,68.0,94,30.29,7.0,Calm,Calm,-,N/A,,Overcast,0,2013-01-09 13:20:00
8:53 AM,70.0,69.1,97,30.30,7.0,East,3.5,-,N/A,,Overcast,100,2013-01-09 13:53:00
9:53 AM,71.1,69.1,93,30.31,7.0,ESE,4.6,-,N/A,,Overcast,120,2013-01-09 14:53:00
10:53 AM,75.0,69.1,82,30.32,10.0,ESE,5.8,-,N/A,,Overcast,120,2013-01-09 15:53:00
11:53 AM,78.1,68.0,71,30.30,10.0,SSE,8.1,-,N/A,,Overcast,150,2013-01-09 16:53:00
12:53 PM,78.1,66.9,68,30.28,10.0,SSE,10.4,-,N/A,,Overcast,160,2013-01-09 17:53:00
1:53 PM,81.0,66.0,60,30.25,10.0,SSE,5.8,-,N/A,,Overcast,150,2013-01-09 18:53:00
2:53 PM,82.0,66.0,58,30.25,10.0,East,5.8,-,N/A,,Overcast,100,2013-01-09 19:53:00
3:53 PM,81.0,68.0,65,30.25,10.0,ENE,9.2,-,N/A,,Scattered Clouds,70,2013-01-09 20:53:00
4:53 PM,79.0,66.9,66,30.26,10.0,East,8.1,-,N/A,,Partly Cloudy,100,2013-01-09 21:53:00
5:53 PM,77.0,66.9,71,30.27,10.0,ENE,4.6,-,N/A,,Clear,70,2013-01-09 22:53:00
7:53 PM,73.9,68.0,82,30.30,10.0,East,10.4,-,N/A,,Clear,100,2013-01-10 00:53:00
8:53 PM,73.0,68.0,84,30.31,10.0,East,5.8,-,N/A,,Clear,100,2013-01-10 01:53:00
9:53 PM,72.0,68.0,87,30.32,10.0,East,9.2,-,N/A,,Clear,100,2013-01-10 02:53:00
10:53 PM,72.0,69.1,91,30.33,10.0,ESE,9.2,-,N/A,,Scattered Clouds,110,2013-01-10 03:53:00
11:53 PM,71.1,68.0,90,30.33,8.0,East,5.8,-,N/A,,Scattered Clouds,100,2013-01-10 04:53:00